Weather History for Orange, TX

Change the Weather History Date:

Wednesday, February 6, 2013

  Actual Average Record
Temperature  
Mean Temperature 60 °F -  
Max Temperature 64 °F 59 °F 78 °F (1963)
Min Temperature 55 °F 39 °F 27 °F (1984)
Degree Days  
Heating Degree Days 6    
Growing Degree Days 10 (Base 50)    
Moisture  
Dew Point 60 °F    
Average Humidity 99    
Maximum Humidity 100    
Minimum Humidity 94    
Precipitation  
Precipitation 0.55 in - - ()
Sea Level Pressure  
Sea Level Pressure 30.01 in    
Wind  
Wind Speed 6 mph (ENE)    
Max Wind Speed 21 mph    
Max Gust Speed 28 mph    
Visibility 5 miles    
Events Fog , Rain    
Averages and records for this station are not official NWS values.
T = Trace of Precipitation, MM = Missing Value Source: NWS Daily Summary

Daily Weather History Graph

Daily Weather History Graph

Search for Another Location

Airport:

Trip Planner

Search our weather history database for the weather conditions in past years. The results will help you decide how hot, cold, wet, or windy it might be!

Date:

Astronomy

Feb. 06, 2013 Rise Set
Actual Time 7:02 AM CST 5:56 PM CST
Civil Twilight 6:37 AM CST 6:21 PM CST
Nautical Twilight 6:08 AM CST 6:50 PM CST
Astronomical Twilight 5:40 AM CST 7:18 PM CST
Moon 3:38 AM CST (2/6) 2:23 PM CST (2/6)
Length of Visible Light 11h 44m
Length of Day
10h 54m
Waning Crescent, 17% of the Moon is Illuminated
Feb 6
Waning Crescent
Feb 10
New
Feb 17
First Quarter
Feb 25
Full
Mar 4
Last Quarter

Hourly Weather History & Observations

Time (CST) Temp. Dew Point Humidity Pressure Visibility Wind Dir Wind Speed Gust Speed Precip Events Conditions
12:15 AM 59.0 °F 59.0 °F 100% 30.03 in 0.2 mi Calm Calm - N/A Fog Fog
12:35 AM 55.4 °F 55.4 °F 100% 30.03 in 0.2 mi Calm Calm - N/A Fog Fog
1:15 AM 57.2 °F 57.2 °F 100% 30.03 in 0.2 mi Calm Calm - N/A Fog Fog
1:35 AM 57.2 °F 57.2 °F 100% 30.03 in 0.5 mi Calm Calm - N/A Fog Fog
1:55 AM 57.2 °F 57.2 °F 100% 30.03 in 0.2 mi Calm Calm - N/A Fog Fog
2:15 AM 57.2 °F 57.2 °F 100% 30.03 in 0.2 mi Calm Calm - N/A Fog Fog
2:35 AM 59.0 °F 59.0 °F 100% 30.03 in 0.2 mi Calm Calm - N/A Fog Fog
2:55 AM 59.0 °F 59.0 °F 100% 30.03 in 0.2 mi NE 4.6 mph - N/A Fog Fog
3:15 AM 59.0 °F 59.0 °F 100% 30.03 in 0.5 mi NE 5.8 mph - N/A Fog Fog
3:35 AM 59.0 °F 59.0 °F 100% 30.03 in 0.8 mi NE 8.1 mph - N/A   Overcast
3:55 AM 59.0 °F 59.0 °F 100% 30.03 in 0.8 mi NE 6.9 mph - N/A   Overcast
4:15 AM 59.0 °F 59.0 °F 100% 30.04 in 0.5 mi NNE 3.5 mph - N/A Fog Fog
4:35 AM 59.0 °F 59.0 °F 100% 30.05 in 0.8 mi Calm Calm - N/A   Overcast
4:55 AM 59.0 °F 59.0 °F 100% 30.06 in 0.8 mi Calm Calm - N/A   Overcast
5:15 AM 59.0 °F 59.0 °F 100% 30.06 in 0.8 mi NE 4.6 mph - N/A   Overcast
5:35 AM 59.0 °F 59.0 °F 100% 30.06 in 1.5 mi ENE 5.8 mph - N/A   Overcast
5:55 AM 59.0 °F 59.0 °F 100% 30.06 in 0.8 mi NE 5.8 mph - N/A   Overcast
6:15 AM 59.0 °F 59.0 °F 100% 30.07 in 1.2 mi NE 5.8 mph - N/A   Overcast
6:35 AM 59.0 °F 59.0 °F 100% 30.06 in 3.0 mi ENE 4.6 mph - N/A   Overcast
6:55 AM 59.0 °F 59.0 °F 100% 30.06 in 4.0 mi ENE 5.8 mph - N/A   Mostly Cloudy
7:15 AM 59.0 °F 59.0 °F 100% 30.05 in 2.5 mi NE 4.6 mph - N/A   Scattered Clouds
7:35 AM 59.0 °F 59.0 °F 100% 30.05 in 3.0 mi ENE 8.1 mph - N/A   Overcast
7:55 AM 59.0 °F 59.0 °F 100% 30.05 in 3.0 mi NE 5.8 mph - N/A   Overcast
8:15 AM 59.0 °F 59.0 °F 100% 30.06 in 4.0 mi NE 5.8 mph - N/A Rain Light Rain
8:35 AM 59.0 °F 59.0 °F 100% 30.08 in 4.0 mi East 3.5 mph - N/A   Light Drizzle
8:55 AM 59.0 °F 59.0 °F 100% 30.08 in 4.0 mi ENE 6.9 mph - 0.01 in   Drizzle
9:15 AM 59.0 °F 59.0 °F 100% 30.08 in 3.0 mi East 5.8 mph - 0.01 in Rain Light Rain
9:35 AM 60.8 °F 60.8 °F 100% 30.09 in 3.0 mi ESE 5.8 mph - 0.02 in Rain Light Rain
9:55 AM 60.8 °F 60.8 °F 100% 30.08 in 4.0 mi ENE 8.1 mph - 0.02 in   Light Drizzle
10:15 AM 60.8 °F 60.8 °F 100% 30.08 in 5.0 mi East 9.2 mph - N/A   Overcast
10:35 AM 62.6 °F 62.6 °F 100% 30.08 in 7.0 mi East 8.1 mph - N/A   Mostly Cloudy
10:55 AM 62.6 °F 62.6 °F 100% 30.08 in 7.0 mi East 8.1 mph - N/A Rain Light Rain
11:15 AM 62.6 °F 62.6 °F 100% 30.07 in 7.0 mi ENE 8.1 mph - N/A   Light Drizzle
11:35 AM 62.6 °F 62.6 °F 100% 30.06 in 7.0 mi NE 6.9 mph - N/A Rain Rain
11:55 AM 62.6 °F 62.6 °F 100% 30.04 in 5.0 mi NE 8.1 mph - 0.01 in Rain Rain
12:15 PM 62.6 °F 62.6 °F 100% 30.04 in 7.0 mi East 6.9 mph - N/A   Overcast
12:35 PM 64.4 °F 62.6 °F 94% 30.03 in 10.0 mi East 9.2 mph - N/A   Mostly Cloudy
12:55 PM 64.4 °F 62.6 °F 94% 30.01 in 10.0 mi ENE 9.2 mph - N/A   Scattered Clouds
1:15 PM 64.4 °F 62.6 °F 94% 30.00 in 10.0 mi ENE 10.4 mph - N/A   Mostly Cloudy
1:35 PM 64.4 °F 62.6 °F 94% 29.98 in 10.0 mi East 10.4 mph - N/A   Scattered Clouds
1:55 PM 64.4 °F 62.6 °F 94% 30.00 in 10.0 mi East 9.2 mph - N/A   Mostly Cloudy
2:15 PM 64.4 °F 62.6 °F 94% 30.00 in 7.0 mi East 4.6 mph - N/A Rain Rain
2:35 PM 62.6 °F 62.6 °F 100% 30.00 in 7.0 mi East 4.6 mph - 0.01 in Rain Light Rain
2:55 PM 62.6 °F 62.6 °F 100% 30.00 in 5.0 mi ENE 3.5 mph - 0.03 in Rain Light Rain
3:15 PM 62.6 °F 62.6 °F 100% 30.01 in 4.0 mi ENE 4.6 mph - 0.04 in Rain Rain
3:35 PM 62.6 °F 62.6 °F 100% 30.00 in 4.0 mi NNE 5.8 mph - 0.10 in Rain Rain
3:55 PM 62.6 °F 62.6 °F 100% 29.99 in 4.0 mi NNE 5.8 mph - 0.14 in Rain Rain
4:15 PM 62.6 °F 62.6 °F 100% 29.98 in 4.0 mi NE 8.1 mph - 0.02 in Rain Light Rain
4:55 PM 62.6 °F 62.6 °F 100% 29.97 in 4.0 mi ENE 10.4 mph - 0.08 in Rain Light Rain
5:15 PM 62.6 °F 62.6 °F 100% 29.95 in 4.0 mi East 12.7 mph - 0.03 in Rain Rain
5:35 PM 60.8 °F 60.8 °F 100% 29.94 in 4.0 mi East 13.8 mph - 0.08 in Rain Rain
5:55 PM 62.6 °F 62.6 °F 100% 29.94 in 4.0 mi East 11.5 mph 20.7 mph 0.12 in Rain Light Rain
6:15 PM 62.6 °F 62.6 °F 100% 29.94 in 5.0 mi East 10.4 mph - 0.02 in Rain Light Rain
6:35 PM 60.8 °F 60.8 °F 100% 29.92 in 5.0 mi East 20.7 mph 27.6 mph 0.04 in Rain Light Rain
7:15 PM 60.8 °F 60.8 °F 100% 29.93 in 7.0 mi East 19.6 mph 27.6 mph 0.02 in Rain Light Rain
7:35 PM 60.8 °F 60.8 °F 100% 29.92 in 7.0 mi East 16.1 mph 25.3 mph 0.05 in Rain Light Rain
7:55 PM 60.8 °F 60.8 °F 100% 29.92 in 7.0 mi East 19.6 mph 25.3 mph 0.07 in Rain Light Rain
8:15 PM 60.8 °F 60.8 °F 100% 29.94 in 7.0 mi ESE 16.1 mph 23.0 mph N/A Rain Light Rain
8:35 PM 60.8 °F 60.8 °F 100% 29.93 in 5.0 mi East 16.1 mph 27.6 mph N/A Rain Light Rain
8:55 PM 60.8 °F 60.8 °F 100% 29.94 in 7.0 mi East 17.3 mph 21.9 mph 0.01 in Rain Rain
9:15 PM 60.8 °F 60.8 °F 100% 29.94 in 7.0 mi East 18.4 mph 24.2 mph 0.01 in Rain Light Rain
9:35 PM 60.8 °F 60.8 °F 100% 29.92 in 7.0 mi East 18.4 mph 23.0 mph 0.02 in Rain Light Rain
9:55 PM 60.8 °F 60.8 °F 100% 29.92 in 7.0 mi East 20.7 mph 27.6 mph 0.02 in Rain Light Rain
10:15 PM 60.8 °F 60.8 °F 100% 29.94 in 7.0 mi East 12.7 mph 17.3 mph N/A   Scattered Clouds
10:35 PM 60.8 °F 60.8 °F 100% 29.94 in 7.0 mi East 13.8 mph 18.4 mph N/A   Mostly Cloudy
10:55 PM 60.8 °F 60.8 °F 100% 29.93 in 7.0 mi ENE 11.5 mph 20.7 mph N/A   Overcast
11:15 PM 60.8 °F 59.0 °F 94% 29.92 in 10.0 mi ENE 9.2 mph - N/A   Scattered Clouds
11:35 PM 59.0 °F 59.0 °F 100% 29.92 in 10.0 mi ENE 8.1 mph - N/A   Clear
11:55 PM 59.0 °F 59.0 °F 100% 29.92 in 10.0 mi ENE 9.2 mph - N/A   Mostly Cloudy